When you browse on this site, cookies collect data to enhance your experience and personalize the content and advertising you see.
Visit our Privacy Policy to learn more. By continuing to use the site, you agree to this use of cookies and data.

Hourly Weather Yastreby

Today, 8 July, Wednesday

Time Temperature Precipitation Wind Pressure Humidity
00:00 +13°C° 0 mm 2 mps 751 mmHg 86%
01:00 +13°C° 0 mm 2 mps 751 mmHg 87%
02:00 +12°C° 0 mm 2 mps 751 mmHg 87%
03:00 +12°C° 0 mm 2 mps 751 mmHg 87%
04:00 +12°C° 0 mm 2 mps 751 mmHg 87%
05:00 +12°C° 0 mm 2 mps 751 mmHg 86%
06:00 +14°C° 0 mm 1 mps 751 mmHg 81%
07:00 +15°C° 0 mm 1 mps 751 mmHg 77%
08:00 +16°C° 0 mm 1 mps 751 mmHg 72%
09:00 +17°C° 0.3 mm 2 mps 751 mmHg 69%
10:00 +18°C° 0.3 mm 2 mps 751 mmHg 67%
11:00 +19°C° 0.3 mm 3 mps 751 mmHg 65%
12:00 +19°C° 0.3 mm 3 mps 751 mmHg 59%
13:00 +20°C° 0.3 mm 3 mps 750 mmHg 54%
14:00 +21°C° 0.3 mm 3 mps 750 mmHg 49%
15:00 +21°C° 0 mm 3 mps 750 mmHg 50%
16:00 +21°C° 0 mm 3 mps 750 mmHg 51%
17:00 +21°C° 0 mm 3 mps 750 mmHg 52%
18:00 +19°C° 0.2 mm 3 mps 750 mmHg 62%
19:00 +17°C° 0.2 mm 2 mps 750 mmHg 72%
20:00 +15°C° 0.2 mm 2 mps 750 mmHg 81%
21:00 +14°C° 0 mm 1 mps 751 mmHg 85%
22:00 +13°C° 0 mm 1 mps 751 mmHg 88%
23:00 +13°C° 0 mm 1 mps 751 mmHg 92%

Tomorrow, 9 July, Thursday

Time Temperature Precipitation Wind Pressure Humidity
00:00 +13°C° 0 mm 1 mps 751 mmHg 92%
01:00 +13°C° 0 mm 1 mps 752 mmHg 93%
02:00 +13°C° 0 mm 1 mps 752 mmHg 93%
03:00 +12°C° 0 mm 2 mps 752 mmHg 93%
04:00 +10°C° 0 mm 2 mps 752 mmHg 93%
05:00 +10°C° 0 mm 2 mps 752 mmHg 94%
06:00 +11°C° 0 mm 3 mps 752 mmHg 87%
07:00 +13°C° 0 mm 3 mps 752 mmHg 80%
08:00 +14°C° 0 mm 3 mps 752 mmHg 73%
09:00 +16°C° 0 mm 3 mps 752 mmHg 66%
10:00 +18°C° 0 mm 4 mps 752 mmHg 60%
11:00 +19°C° 0 mm 4 mps 753 mmHg 53%
12:00 +19°C° 0.3 mm 4 mps 752 mmHg 54%
13:00 +19°C° 0.3 mm 4 mps 752 mmHg 55%
14:00 +20°C° 0.3 mm 4 mps 752 mmHg 57%
15:00 +19°C° 0.3 mm 4 mps 752 mmHg 60%
16:00 +19°C° 0.3 mm 4 mps 753 mmHg 64%
17:00 +19°C° 0.3 mm 4 mps 753 mmHg 67%
18:00 +18°C° 0.1 mm 3 mps 753 mmHg 72%
19:00 +16°C° 0.1 mm 3 mps 753 mmHg 77%
20:00 +15°C° 0.1 mm 2 mps 753 mmHg 82%
21:00 +14°C° 0 mm 2 mps 753 mmHg 85%
22:00 +13°C° 0 mm 2 mps 754 mmHg 88%
23:00 +12°C° 0 mm 2 mps 754 mmHg 90%

Day after tomorrow, 10 July, Friday

Time Temperature Precipitation Wind Pressure Humidity
00:00 +10°C° 0 mm 2 mps 754 mmHg 91%
01:00 +11°C° 0 mm 1 mps 755 mmHg 92%
02:00 +10°C° 0 mm 1 mps 755 mmHg 93%
03:00 +11°C° 0 mm 1 mps 755 mmHg 93%
04:00 +11°C° 0 mm 1 mps 755 mmHg 92%
05:00 +11°C° 0 mm 1 mps 755 mmHg 92%
06:00 +13°C° 0 mm 1 mps 755 mmHg 85%
07:00 +15°C° 0 mm 2 mps 755 mmHg 79%
08:00 +16°C° 0 mm 2 mps 755 mmHg 73%
09:00 +17°C° 0 mm 2 mps 755 mmHg 67%
10:00 +19°C° 0 mm 3 mps 755 mmHg 61%
11:00 +20°C° 0 mm 3 mps 755 mmHg 56%
12:00 +19°C° 0.1 mm 3 mps 754 mmHg 62%
13:00 +18°C° 0.1 mm 3 mps 754 mmHg 68%
14:00 +17°C° 0.1 mm 3 mps 754 mmHg 74%
15:00 +16°C° 0.1 mm 3 mps 754 mmHg 78%
16:00 +16°C° 0.1 mm 3 mps 753 mmHg 83%
17:00 +15°C° 0.1 mm 2 mps 753 mmHg 88%
18:00 +15°C° 0.1 mm 2 mps 753 mmHg 91%
19:00 +15°C° 0.1 mm 2 mps 753 mmHg 93%
20:00 +15°C° 0.1 mm 2 mps 752 mmHg 96%
21:00 +15°C° 0 mm 2 mps 752 mmHg 97%
22:00 +15°C° 0 mm 2 mps 752 mmHg 97%
23:00 +15°C° 0 mm 2 mps 752 mmHg 98%

11 July, Saturday

Time Temperature Precipitation Wind Pressure Humidity
00:00 +15°C° 0 mm 2 mps 752 mmHg 98%
01:00 +15°C° 0 mm 2 mps 751 mmHg 98%
02:00 +16°C° 0 mm 2 mps 751 mmHg 98%
03:00 +16°C° 0.2 mm 3 mps 751 mmHg 98%
04:00 +17°C° 0.2 mm 3 mps 751 mmHg 98%
05:00 +17°C° 0.2 mm 4 mps 751 mmHg 97%
06:00 +17°C° 0.2 mm 4 mps 750 mmHg 96%
07:00 +18°C° 0.2 mm 4 mps 750 mmHg 96%
08:00 +17°C° 0.2 mm 5 mps 750 mmHg 95%
09:00 +19°C° 0.2 mm 5 mps 751 mmHg 90%
10:00 +20°C° 0.2 mm 5 mps 751 mmHg 85%
11:00 +22°C° 0.2 mm 6 mps 751 mmHg 80%
12:00 +22°C° 0.7 mm 6 mps 751 mmHg 80%
13:00 +22°C° 0.7 mm 6 mps 751 mmHg 80%
14:00 +22°C° 0.7 mm 6 mps 752 mmHg 80%
15:00 +22°C° 0.1 mm 5 mps 752 mmHg 73%
16:00 +23°C° 0.1 mm 5 mps 752 mmHg 66%
17:00 +23°C° 0.1 mm 5 mps 753 mmHg 59%
18:00 +21°C° 0 mm 4 mps 753 mmHg 63%
19:00 +20°C° 0 mm 4 mps 754 mmHg 66%
20:00 +18°C° 0 mm 3 mps 754 mmHg 69%
21:00 +17°C° 0 mm 3 mps 754 mmHg 70%
22:00 +16°C° 0 mm 3 mps 755 mmHg 70%
23:00 +14°C° 0 mm 3 mps 755 mmHg 70%

12 July, Sunday

Time Temperature Precipitation Wind Pressure Humidity
00:00 +13°C° 0 mm 3 mps 755 mmHg 74%
01:00 +12°C° 0 mm 3 mps 756 mmHg 77%
02:00 +13°C° 0 mm 2 mps 756 mmHg 80%
03:00 +13°C° 0 mm 2 mps 756 mmHg 81%
04:00 +13°C° 0 mm 2 mps 756 mmHg 82%
05:00 +12°C° 0 mm 2 mps 756 mmHg 83%
06:00 +13°C° 0 mm 2 mps 756 mmHg 80%
07:00 +14°C° 0 mm 2 mps 756 mmHg 76%
08:00 +15°C° 0 mm 2 mps 756 mmHg 73%
09:00 +16°C° 0 mm 2 mps 756 mmHg 69%
10:00 +17°C° 0 mm 3 mps 756 mmHg 65%
11:00 +18°C° 0 mm 3 mps 756 mmHg 61%
12:00 +19°C° 0 mm 3 mps 756 mmHg 60%
13:00 +19°C° 0 mm 3 mps 756 mmHg 59%
14:00 +20°C° 0 mm 3 mps 756 mmHg 58%
15:00 +20°C° 0.2 mm 3 mps 756 mmHg 60%
16:00 +20°C° 0.2 mm 3 mps 755 mmHg 62%
17:00 +20°C° 0.2 mm 3 mps 755 mmHg 65%
18:00 +19°C° 0.3 mm 2 mps 755 mmHg 73%
19:00 +17°C° 0.3 mm 2 mps 755 mmHg 81%
20:00 +16°C° 0.3 mm 2 mps 755 mmHg 88%
21:00 +15°C° 0 mm 2 mps 755 mmHg 91%
22:00 +14°C° 0 mm 2 mps 756 mmHg 93%
23:00 +13°C° 0 mm 2 mps 756 mmHg 95%

13 July, Monday

Time Temperature Precipitation Wind Pressure Humidity
00:00 +12°C° 0 mm 2 mps 756 mmHg 96%
01:00 +12°C° 0 mm 2 mps 756 mmHg 96%
02:00 +10°C° 0 mm 2 mps 756 mmHg 97%
03:00 +10°C° 0 mm 2 mps 756 mmHg 97%
04:00 +10°C° 0 mm 2 mps 756 mmHg 97%
05:00 +10°C° 0 mm 2 mps 756 mmHg 98%
06:00 +13°C° 0 mm 2 mps 756 mmHg 93%
07:00 +15°C° 0 mm 2 mps 756 mmHg 89%
08:00 +16°C° 0 mm 2 mps 756 mmHg 84%
09:00 +18°C° 0.1 mm 2 mps 756 mmHg 77%
10:00 +19°C° 0.1 mm 2 mps 755 mmHg 70%
11:00 +20°C° 0.1 mm 2 mps 755 mmHg 62%
12:00 +21°C° 0.4 mm 2 mps 755 mmHg 62%
13:00 +21°C° 0.4 mm 2 mps 755 mmHg 62%
14:00 +21°C° 0.4 mm 2 mps 755 mmHg 62%
15:00 +21°C° 0.7 mm 2 mps 755 mmHg 66%
16:00 +20°C° 0.7 mm 2 mps 754 mmHg 71%
17:00 +20°C° 0.7 mm 2 mps 754 mmHg 75%
18:00 +19°C° 0.2 mm 2 mps 754 mmHg 80%
19:00 +18°C° 0.2 mm 2 mps 754 mmHg 84%
20:00 +16°C° 0.2 mm 2 mps 754 mmHg 89%
21:00 +15°C° 0 mm 2 mps 755 mmHg 90%
22:00 +14°C° 0 mm 2 mps 755 mmHg 92%
23:00 +13°C° 0 mm 2 mps 755 mmHg 93%
Show more